Kiripotib Landing Site

Jump to: basic info | weather | comments

Related pages: nearby airports | nearby navaids

Basic information (top)

Location: lon -23.328300, lat 17.946400, elev 4,475 ft / 1,364 m msl
Status: small_airport

Weather (top)

Current conditions for Hosea Kutako International Airport 57nm (106km) NNW (rec'd 2014/08/01 07:00Z):

FYWH 010700Z 30004KT CAVOK 15/M01 Q1028

Airport forecast for Hosea Kutako International Airport 57nm (106km) NNW (rec'd 2014/08/01 06:00Z):

TAF COR FYWH 010517Z 0106/0212 27005KT CAVOK 
      BECMG 0108/0110 07008KT 9999 SCT045 
      BECMG 0117/0118 NSC

Latest comments (top)

More details: Once can also land in the nearby salt ... [read]

Kiripotib Landing Strip Details: GPS location: S 23° 19' 50'' E 17° ... [read]

More... (top)

See also NOTAMs and nearby airports and navaids, or visit the Kiripotib Landing Site page at the main OurAirports website..